When you browse on this site, cookies collect data to enhance your experience and personalize the content and advertising you see.
Visit our Privacy Policy to learn more. By continuing to use the site, you agree to this use of cookies and data.
  • In Portugal
  • List of Countries
  • For 7 days
  • Water Temperature
  • Satellite Maps
  • Weather Map
  • Weather Widgets
  • user-avatar
    Login

    Hourly Weather Monastevo

    Today, 16 July, Tuesday

    Time Temperature Precipitation Wind Pressure Humidity
    00:00 +11°C° 0 mm 1 mps 738 mmHg 91%
    01:00 +9°C° 0 mm 0 mps 739 mmHg 92%
    02:00 +10°C° 0 mm 1 mps 739 mmHg 93%
    03:00 +9°C° 0 mm 0 mps 739 mmHg 92%
    04:00 +10°C° 0 mm 0 mps 738 mmHg 90%
    05:00 +10°C° 0 mm 0 mps 738 mmHg 89%
    06:00 +12°C° 0 mm 0 mps 738 mmHg 81%
    07:00 +16°C° 0 mm 1 mps 738 mmHg 73%
    08:00 +19°C° 0 mm 1 mps 738 mmHg 65%
    09:00 +19°C° 0.1 mm 1 mps 738 mmHg 62%
    10:00 +20°C° 0.1 mm 1 mps 738 mmHg 59%
    11:00 +20°C° 0.1 mm 2 mps 738 mmHg 56%
    12:00 +20°C° 0.2 mm 2 mps 737 mmHg 58%
    13:00 +20°C° 0.2 mm 2 mps 737 mmHg 61%
    14:00 +20°C° 0.2 mm 3 mps 737 mmHg 63%
    15:00 +20°C° 0.2 mm 3 mps 737 mmHg 64%
    16:00 +19°C° 0.2 mm 3 mps 737 mmHg 65%
    17:00 +19°C° 0.2 mm 3 mps 736 mmHg 66%
    18:00 +18°C° 0 mm 2 mps 736 mmHg 75%
    19:00 +16°C° 0 mm 2 mps 736 mmHg 84%
    20:00 +14°C° 0 mm 2 mps 736 mmHg 93%
    21:00 +13°C° 0 mm 2 mps 735 mmHg 95%
    22:00 +13°C° 0 mm 2 mps 735 mmHg 97%
    23:00 +12°C° 0 mm 2 mps 735 mmHg 99%

    Tomorrow, 17 July, Wednesday

    Time Temperature Precipitation Wind Pressure Humidity
    00:00 +12°C° 0 mm 2 mps 735 mmHg 99%
    01:00 +10°C° 0 mm 2 mps 735 mmHg 99%
    02:00 +10°C° 0 mm 2 mps 735 mmHg 99%
    03:00 +12°C° 0 mm 2 mps 735 mmHg 98%
    04:00 +13°C° 0 mm 2 mps 734 mmHg 97%
    05:00 +13°C° 0 mm 2 mps 734 mmHg 97%
    06:00 +14°C° 0 mm 2 mps 734 mmHg 95%
    07:00 +15°C° 0 mm 2 mps 734 mmHg 93%
    08:00 +15°C° 0 mm 2 mps 734 mmHg 91%
    09:00 +16°C° 0 mm 2 mps 734 mmHg 86%
    10:00 +18°C° 0 mm 1 mps 734 mmHg 81%
    11:00 +19°C° 0 mm 1 mps 734 mmHg 77%
    12:00 +20°C° 0 mm 1 mps 734 mmHg 72%
    13:00 +21°C° 0 mm 1 mps 734 mmHg 67%
    14:00 +22°C° 0 mm 1 mps 733 mmHg 62%
    15:00 +22°C° 0.3 mm 1 mps 733 mmHg 65%
    16:00 +22°C° 0.3 mm 1 mps 733 mmHg 69%
    17:00 +21°C° 0.3 mm 1 mps 733 mmHg 72%
    18:00 +19°C° 1 mm 2 mps 733 mmHg 79%
    19:00 +17°C° 1 mm 2 mps 733 mmHg 86%
    20:00 +16°C° 1 mm 3 mps 732 mmHg 93%
    21:00 +15°C° 0.9 mm 2 mps 732 mmHg 95%
    22:00 +15°C° 0.9 mm 2 mps 732 mmHg 96%
    23:00 +15°C° 0.9 mm 2 mps 732 mmHg 98%

    Day after tomorrow, 18 July, Thursday

    Time Temperature Precipitation Wind Pressure Humidity
    00:00 +15°C° 0.8 mm 2 mps 732 mmHg 98%
    01:00 +14°C° 0.8 mm 2 mps 732 mmHg 98%
    02:00 +14°C° 0.8 mm 1 mps 732 mmHg 98%
    03:00 +14°C° 0.6 mm 1 mps 731 mmHg 99%
    04:00 +14°C° 0.6 mm 1 mps 731 mmHg 99%
    05:00 +14°C° 0.6 mm 1 mps 731 mmHg 99%
    06:00 +14°C° 0.2 mm 1 mps 731 mmHg 97%
    07:00 +15°C° 0.2 mm 1 mps 731 mmHg 95%
    08:00 +15°C° 0.2 mm 1 mps 731 mmHg 94%
    09:00 +16°C° 0.5 mm 2 mps 731 mmHg 88%
    10:00 +17°C° 0.5 mm 3 mps 731 mmHg 83%
    11:00 +18°C° 0.5 mm 3 mps 731 mmHg 77%
    12:00 +18°C° 0.4 mm 3 mps 731 mmHg 74%
    13:00 +19°C° 0.4 mm 3 mps 731 mmHg 70%
    14:00 +20°C° 0.4 mm 3 mps 731 mmHg 66%
    15:00 +19°C° 0.6 mm 3 mps 731 mmHg 71%
    16:00 +19°C° 0.6 mm 3 mps 731 mmHg 76%
    17:00 +18°C° 0.6 mm 2 mps 731 mmHg 82%
    18:00 +17°C° 0.2 mm 2 mps 731 mmHg 86%
    19:00 +15°C° 0.2 mm 2 mps 731 mmHg 91%
    20:00 +14°C° 0.2 mm 2 mps 731 mmHg 95%
    21:00 +13°C° 0 mm 1 mps 731 mmHg 96%
    22:00 +13°C° 0 mm 1 mps 732 mmHg 97%
    23:00 +11°C° 0 mm 0 mps 732 mmHg 98%

    19 July, Friday

    Time Temperature Precipitation Wind Pressure Humidity
    00:00 +11°C° 0 mm 0 mps 732 mmHg 98%
    01:00 +10°C° 0 mm 0 mps 732 mmHg 98%
    02:00 +10°C° 0 mm 0 mps 732 mmHg 98%
    03:00 +11°C° 0 mm 0 mps 732 mmHg 98%
    04:00 +11°C° 0 mm 0 mps 732 mmHg 98%
    05:00 +11°C° 0 mm 0 mps 732 mmHg 97%
    06:00 +13°C° 0 mm 0 mps 733 mmHg 93%
    07:00 +15°C° 0 mm 1 mps 733 mmHg 88%
    08:00 +18°C° 0 mm 1 mps 733 mmHg 84%
    09:00 +18°C° 0 mm 1 mps 733 mmHg 78%
    10:00 +18°C° 0 mm 2 mps 734 mmHg 73%
    11:00 +19°C° 0 mm 2 mps 734 mmHg 67%
    12:00 +19°C° 0.4 mm 2 mps 734 mmHg 70%
    13:00 +20°C° 0.4 mm 2 mps 734 mmHg 72%
    14:00 +20°C° 0.4 mm 3 mps 734 mmHg 75%
    15:00 +19°C° 0.8 mm 2 mps 734 mmHg 81%
    16:00 +17°C° 0.8 mm 2 mps 734 mmHg 87%
    17:00 +16°C° 0.8 mm 2 mps 735 mmHg 93%
    18:00 +16°C° 0.2 mm 2 mps 735 mmHg 94%
    19:00 +15°C° 0.2 mm 2 mps 735 mmHg 96%
    20:00 +15°C° 0.2 mm 1 mps 735 mmHg 97%
    21:00 +14°C° 0 mm 2 mps 735 mmHg 98%
    22:00 +14°C° 0 mm 2 mps 736 mmHg 98%
    23:00 +13°C° 0 mm 2 mps 736 mmHg 99%

    20 July, Saturday

    Time Temperature Precipitation Wind Pressure Humidity
    00:00 +14°C° 0 mm 2 mps 736 mmHg 98%
    01:00 +13°C° 0 mm 3 mps 736 mmHg 98%
    02:00 +14°C° 0 mm 3 mps 736 mmHg 98%
    03:00 +13°C° 0 mm 3 mps 737 mmHg 98%
    04:00 +13°C° 0 mm 3 mps 737 mmHg 98%
    05:00 +13°C° 0 mm 3 mps 737 mmHg 97%
    06:00 +14°C° 0 mm 3 mps 737 mmHg 97%
    07:00 +14°C° 0 mm 3 mps 738 mmHg 96%
    08:00 +14°C° 0 mm 3 mps 738 mmHg 95%
    09:00 +14°C° 0 mm 3 mps 738 mmHg 94%
    10:00 +16°C° 0 mm 3 mps 739 mmHg 93%
    11:00 +16°C° 0 mm 3 mps 739 mmHg 91%
    12:00 +18°C° 0.1 mm 3 mps 739 mmHg 84%
    13:00 +19°C° 0.1 mm 3 mps 739 mmHg 76%
    14:00 +20°C° 0.1 mm 3 mps 739 mmHg 69%
    15:00 +20°C° 0.4 mm 3 mps 739 mmHg 73%
    16:00 +20°C° 0.4 mm 3 mps 739 mmHg 78%
    17:00 +20°C° 0.4 mm 3 mps 739 mmHg 83%
    18:00 +18°C° 0.1 mm 3 mps 740 mmHg 87%
    19:00 +17°C° 0.1 mm 2 mps 740 mmHg 91%
    20:00 +16°C° 0.1 mm 2 mps 740 mmHg 95%
    21:00 +16°C° 0 mm 2 mps 740 mmHg 96%
    22:00 +15°C° 0 mm 2 mps 740 mmHg 97%
    23:00 +15°C° 0 mm 2 mps 740 mmHg 98%

    21 July, Sunday

    Time Temperature Precipitation Wind Pressure Humidity
    00:00 +14°C° 0 mm 2 mps 740 mmHg 98%
    01:00 +14°C° 0 mm 2 mps 740 mmHg 98%
    02:00 +13°C° 0 mm 2 mps 740 mmHg 99%
    03:00 +14°C° 0 mm 2 mps 741 mmHg 99%
    04:00 +14°C° 0 mm 1 mps 741 mmHg 99%
    05:00 +14°C° 0 mm 1 mps 741 mmHg 99%
    06:00 +14°C° 0 mm 1 mps 741 mmHg 97%
    07:00 +15°C° 0 mm 1 mps 741 mmHg 96%
    08:00 +16°C° 0 mm 2 mps 741 mmHg 94%
    09:00 +17°C° 0 mm 2 mps 741 mmHg 86%
    10:00 +20°C° 0 mm 1 mps 741 mmHg 78%
    11:00 +21°C° 0 mm 1 mps 741 mmHg 70%
    12:00 +21°C° 0.3 mm 2 mps 741 mmHg 70%
    13:00 +23°C° 0.3 mm 2 mps 741 mmHg 69%
    14:00 +23°C° 0.3 mm 2 mps 741 mmHg 69%
    15:00 +23°C° 1 mm 2 mps 741 mmHg 74%
    16:00 +21°C° 1 mm 2 mps 741 mmHg 79%
    17:00 +21°C° 1 mm 2 mps 741 mmHg 84%
    18:00 +19°C° 0.2 mm 2 mps 741 mmHg 88%
    19:00 +19°C° 0.2 mm 1 mps 741 mmHg 91%
    20:00 +18°C° 0.2 mm 1 mps 741 mmHg 95%
    21:00 +16°C° 0 mm 1 mps 741 mmHg 95%
    22:00 +16°C° 0 mm 1 mps 741 mmHg 96%
    23:00 +15°C° 0 mm 1 mps 741 mmHg 96%
    Show more